DateTimeUTC,F1_A11,F1_S11,BsB_S11,BsG_S11,BsR_S11,BbsB_S11,BbsG_S11,BbsR_S11,BaB_A11,BaG_A11,BaR_A11,Tu_S11,T_S11,Uu_S11,U_S11,P_S11,T1_A11
2021-12-10T15:00:00Z,00000200,21000000,,,,,,,-000.57,-000.56,-000.02,18.8,25.9,,00.0,0651.6,31.0
2021-12-10T15:01:00Z,00000200,21000000,,,,,,,-000.05,0000.12,-000.21,18.8,25.9,,00.0,0651.6,31.0
2021-12-10T15:02:00Z,00000200,21000000,,,,,,,-000.15,-000.09,-000.13,18.8,25.9,,00.0,0651.6,31.0
2021-12-10T15:03:00Z,00000200,61000000,,,,,,,-000.16,-000.10,0000.18,18.8,25.9,,00.0,0651.6,31.1
2021-12-10T15:04:00Z,00000200,41000000,-000.15,0000.07,0000.34,-000.30,0000.06,-000.15,0000.28,-000.16,-000.15,19.1,25.8,,00.0,0652.5,31.1
2021-12-10T15:05:00Z,00000200,01000000,0001.09,0000.35,-000.03,-000.19,0000.29,0000.09,-000.26,0000.28,-000.07,19.2,25.8,,00.0,0652.5,31.1
2021-12-10T15:06:00Z,00000200,01000000,0000.49,0000.38,0000.23,-000.33,-000.07,-000.22,-000.15,-000.30,-000.08,19.2,25.8,,00.0,0652.5,31.1
2021-12-10T15:07:00Z,00000200,01000000,0000.21,0000.04,0000.41,-000.04,-000.21,0000.16,0000.26,0000.20,0000.15,19.2,25.8,,00.0,0652.5,31.1
2021-12-10T15:08:00Z,00000200,01000000,0000.43,0000.24,-000.15,0000.14,-000.05,0000.00,0000.22,0000.19,0000.07,19.1,25.8,,00.0,0652.5,31.0
2021-12-10T15:09:00Z,00000200,01000000,0001.09,0000.24,-000.05,-000.14,0000.11,0000.25,0000.08,0000.02,-000.07,19.0,25.8,,00.0,0652.5,31.0
2021-12-10T15:10:00Z,00000200,01000000,0000.55,0000.31,0000.21,-000.16,-000.03,-000.09,-000.24,-000.40,-000.09,18.9,25.7,,00.0,0652.5,31.0
2021-12-10T15:11:00Z,00000200,01000000,0000.73,0000.11,0000.13,-000.03,0000.20,0000.00,0000.23,-000.06,0000.24,18.9,25.6,,00.0,0652.5,31.0
2021-12-10T15:12:00Z,00000200,01000000,0000.73,0000.06,0000.34,0000.25,-000.14,0000.34,0000.35,0000.52,0000.21,18.8,25.6,,00.0,0652.5,31.0
2021-12-10T15:13:00Z,00000200,01000000,0000.74,0000.19,0000.25,0000.47,-000.06,0000.17,0000.41,0000.23,0000.12,18.9,25.6,,00.0,0652.5,31.0
2021-12-10T15:14:00Z,00000200,01000000,0000.40,-000.06,0000.21,-000.06,-000.20,-000.23,0000.01,-000.00,0000.33,18.9,25.6,,00.0,0652.5,31.0
2021-12-10T15:15:00Z,00000200,01000000,0000.34,0000.16,0000.19,-000.03,-000.12,0000.24,-000.12,0000.29,-000.25,18.9,25.6,,00.0,0652.5,31.0
2021-12-10T15:16:00Z,00000200,01000000,0000.58,0000.14,0000.27,0000.37,-000.09,-000.34,0000.10,0000.16,0000.31,19.0,25.6,,00.0,0652.5,31.0
2021-12-10T15:17:00Z,00000200,01000000,0000.88,0000.23,0000.38,0000.34,0000.15,0000.37,0000.17,0000.28,-000.06,19.0,25.6,,00.0,0652.5,31.0
2021-12-10T15:18:00Z,00000200,01000000,0000.09,0000.29,0000.36,0000.03,0000.02,0000.42,0000.30,-000.09,0000.30,19.1,25.6,,00.0,0652.5,31.1
2021-12-10T15:19:00Z,00000200,01000000,0001.03,0000.12,-000.11,-000.53,0000.06,-000.05,-000.15,0000.29,0000.03,19.1,25.7,,00.0,0652.6,31.0
2021-12-10T15:20:00Z,00000200,01000000,-000.39,0000.01,0000.01,0000.05,0000.00,-000.15,0000.22,-000.00,-000.02,19.1,25.7,,00.0,0652.6,31.0
2021-12-10T15:21:00Z,00000200,01000000,-000.09,-000.16,0000.01,-000.08,0000.25,-000.11,0000.05,0000.24,0000.08,19.2,25.7,,00.0,0652.6,31.0
2021-12-10T15:22:00Z,00000200,01000000,0000.52,-000.01,0000.23,-000.26,0000.01,0000.32,0000.65,0000.19,-000.10,19.2,25.7,,00.0,0652.6,31.1
2021-12-10T15:23:00Z,00000200,01000000,0000.88,0000.23,0000.19,-000.27,-000.03,0000.19,-000.53,0000.05,0000.70,19.2,25.8,,00.0,0652.6,31.1
2021-12-10T15:24:00Z,00000200,01000000,0000.68,0000.11,0000.45,0000.34,0000.02,-000.08,0000.38,0000.29,-000.26,19.2,25.7,,00.0,0652.5,31.1
2021-12-10T15:25:00Z,00000200,01000000,0000.72,-000.05,0000.06,0000.08,0000.29,-000.06,0000.03,-000.17,-000.16,19.1,25.7,,00.0,0652.5,31.0
2021-12-10T15:26:00Z,00000200,01000000,0000.60,0000.15,-000.01,-000.39,-000.07,-000.03,0000.16,0000.16,0000.47,19.1,25.7,,00.0,0652.5,31.0
2021-12-10T15:27:00Z,00000200,01000000,0000.59,0000.24,-000.02,0000.07,0000.11,0000.00,0000.35,0000.27,0000.01,19.0,25.6,,00.0,0652.5,31.0
2021-12-10T15:28:00Z,00000200,01000000,0000.49,-000.02,-000.07,0000.05,0000.12,-000.02,0000.22,0000.29,0000.31,19.1,25.6,,00.0,0652.4,31.0
2021-12-10T15:29:00Z,00000200,01000000,0000.92,0000.41,0000.19,-000.15,0000.14,0000.03,0000.21,-000.27,-000.11,19.1,25.7,,00.0,0652.4,31.0
2021-12-10T15:30:00Z,00000200,01000000,-000.31,0000.14,0000.07,0000.28,0000.20,0000.10,0000.20,0000.69,0000.28,19.1,25.7,,00.0,0652.5,31.0
2021-12-10T15:31:00Z,00000200,01000000,0001.39,-000.15,0000.39,0000.22,-000.13,-000.18,-000.04,0000.10,-000.12,19.2,25.7,,00.0,0652.5,31.1
2021-12-10T15:32:00Z,00000200,01000000,-000.18,0000.40,0000.25,0000.22,0000.26,0000.37,0000.40,-000.02,0000.33,19.2,25.7,,00.0,0652.5,31.1
2021-12-10T15:33:00Z,00000200,01000000,0000.32,0000.06,0000.14,0000.17,0000.14,0000.05,0000.12,0000.19,0000.01,19.2,25.7,,00.0,0652.5,31.1
2021-12-10T15:34:00Z,00000200,01000000,-000.30,-000.09,-000.09,-000.38,0000.02,0000.04,0000.06,0000.20,0000.07,19.3,25.7,,00.0,0652.5,31.1
2021-12-10T15:35:00Z,00000200,01000000,0001.21,0000.32,0000.27,-000.43,0000.17,0000.34,0000.35,0000.19,0000.39,19.3,25.7,,00.0,0652.5,31.1
2021-12-10T15:36:00Z,00000200,01000000,0000.19,0000.04,-000.10,0000.23,0000.13,0000.15,-000.08,0000.04,0000.06,19.3,25.8,,00.0,0652.5,31.1
2021-12-10T15:37:00Z,00000200,01000000,0001.05,0000.39,0000.15,0000.26,0000.11,0000.20,0000.37,0000.26,0000.03,19.4,25.8,,00.0,0652.5,31.1
2021-12-10T15:38:00Z,00000200,01000000,0001.18,0000.04,0000.18,0000.66,-000.13,0000.24,0000.34,0000.05,-000.01,19.4,25.8,,00.0,0652.5,31.1
2021-12-10T15:39:00Z,00000200,01000000,0001.01,0000.17,0000.21,-000.29,-000.11,0000.16,-000.15,0000.06,0000.03,19.4,25.8,,00.0,0652.5,31.1
2021-12-10T15:40:00Z,00000200,01000000,0000.10,0000.32,-000.22,-000.70,0000.11,0000.08,-000.12,-000.07,-000.13,19.3,25.8,,00.0,0652.5,31.0
2021-12-10T15:41:00Z,00000200,01000000,0000.60,0000.21,0000.44,0000.48,0000.03,0000.21,0000.22,0000.08,-000.09,19.3,25.8,,00.0,0652.5,31.0
2021-12-10T15:42:00Z,00000200,01000000,0000.76,0000.32,-000.05,-000.27,0000.31,0000.19,0000.20,0000.17,0000.29,19.3,25.8,,00.0,0652.5,31.0
2021-12-10T15:43:00Z,00000200,01000000,0001.27,-000.31,0000.17,-000.19,0000.44,0000.10,0000.09,0000.28,0000.26,19.3,25.7,,00.0,0652.5,31.0
2021-12-10T15:44:00Z,00000200,01000000,0000.58,0000.05,0000.04,-000.11,0000.12,0000.18,0000.12,0000.15,-000.20,19.3,25.8,,00.0,0652.5,31.1
2021-12-10T15:45:00Z,00000200,01000000,0000.88,0000.40,-000.20,0000.54,0000.02,-000.07,-000.02,0000.02,0000.52,19.4,25.8,,00.0,0652.5,31.1
2021-12-10T15:46:00Z,00000200,01000000,-000.38,0000.09,-000.03,0000.24,0000.07,-000.15,0000.54,-000.09,-000.22,19.4,25.8,,00.0,0652.5,31.1
2021-12-10T15:47:00Z,00000200,01000000,0000.27,0000.09,-000.18,-000.18,0000.03,0000.25,0000.14,0000.51,0000.73,19.4,25.8,,00.0,0652.6,31.1
2021-12-10T15:48:00Z,00000200,01000000,0000.39,0000.07,0000.18,0000.36,-000.09,0000.12,-000.22,-000.16,-000.24,19.5,25.8,,00.0,0652.5,31.1
2021-12-10T15:49:00Z,00000200,01000000,0000.68,0000.19,-000.56,0000.03,0000.05,-000.15,0000.55,0000.63,0000.45,19.5,25.8,,00.0,0652.6,31.1
2021-12-10T15:50:00Z,00000200,01000000,0000.60,0000.19,0000.10,0000.02,-000.12,0000.18,0000.00,-000.08,-000.52,19.5,25.8,,00.0,0652.5,31.1
2021-12-10T15:51:00Z,00000200,01000000,0000.18,-000.09,0000.15,0000.04,0000.17,-000.21,0000.03,-000.27,0000.19,19.5,25.9,,00.0,0652.5,31.1
2021-12-10T15:52:00Z,00000200,01000000,0000.37,0000.10,0000.13,-000.47,0000.06,0000.32,0000.01,0000.41,0000.23,19.5,25.9,,00.0,0652.5,31.1
2021-12-10T15:53:00Z,00000200,01000000,0000.42,0000.24,0000.32,-000.01,0000.14,0000.37,0000.48,0000.09,-000.09,19.5,25.9,,00.0,0652.5,31.1
2021-12-10T15:54:00Z,00000200,01000000,0000.43,0000.03,-000.05,-000.77,0000.10,-000.06,-000.11,-000.30,0000.21,19.4,25.9,,00.0,0652.5,31.0
2021-12-10T15:55:00Z,00000200,01000000,0000.53,0000.07,0000.02,0000.38,0000.31,-000.05,-000.25,0000.45,-000.27,19.3,25.8,,00.0,0652.5,31.0
2021-12-10T15:56:00Z,00000200,01000000,0000.19,0000.40,-000.23,0000.41,0000.06,0000.05,0000.34,-000.28,0000.27,19.2,25.7,,00.0,0652.5,31.0
2021-12-10T15:57:00Z,00000200,41000000,,,,,,,-000.19,-000.30,-000.00,19.2,25.7,,00.0,0652.5,31.0
2021-12-10T15:58:00Z,00000200,61000000,,,,,,,-000.25,0000.52,-000.06,18.9,25.8,,00.0,0651.5,31.0
2021-12-10T15:59:00Z,00000200,21000000,,,,,,,0000.29,-000.28,-000.06,18.9,25.9,,00.0,0651.5,31.0
